Regional Weather Roundup
Issued by NWS

Home | Current Version | Previous Version | Graphics & Text | Print | Product List | Glossary On
Versions: 1 2 3 4 5 6 7 8 9 10 11 12 13 14 15 16 17 18 19 20 21 22 23 24 25 26 27 28
000
ASUS45 KTFX 271810
RWRMT
MONTANA REGIONAL WEATHER ROUNDUP
NATIONAL WEATHER SERVICE GREAT FALLS MT
1200 PM MDT TUE JUN 27 2017

NOTE: "FAIR" INDICATES FEW OR NO CLOUDS BELOW 12000 FEET WITH NO
SIGNIFICANT WEATHER AND/OR OBSTRUCTIONS TO VISIBILITY.

MTZ001>007-043-271900-
WEST OF THE DIVIDE

CITY           SKY/WX    TMP DP  RH WIND       PRES   REMARKS
KALISPELL      MOSUNNY   73  55  53 SE6       29.81S
MISSOULA       PTSUNNY   74  54  49 VRB3      29.87F
BUTTE          MOSUNNY   63  47  55 VRB3      29.97F
MULLAN PASS    MOSUNNY   61  44  53 MISG      30.00S
ANACONDA         N/A     66  45  45 W7        29.93F
DEER LODGE       N/A     63  52  67 N3        29.95S
EUREKA           N/A     75  46  35 CALM      29.79S
HAMILTON         N/A     72  52  49 S5        29.89F
$$

MTZ008-052>055-271900-
SOUTHWEST MONTANA

CITY           SKY/WX    TMP DP  RH WIND       PRES   REMARKS
BOZEMAN        LGT RAIN  63  53  70 W9        29.91R
DILLON         PTSUNNY   69  42  37 NW5       29.96S
W YELLOWSTONE  CLOUDY    61  41  48 SW17G26   30.03S
ENNIS          PTSUNNY   66  45  45 SW10G20   30.01S
THREE FORKS      N/A     70  52  52 SW10      29.90S
$$

MTZ009-010-012-014-046-048-049-054-271900-
EAST SLOPES AND CENTRAL MONTANA

CITY           SKY/WX    TMP DP  RH WIND       PRES   REMARKS
CUT BANK       MOSUNNY   68  51  54 N15       29.79S
GREAT FALLS    CLOUDY    73  45  36 W8        29.78R
MALMSTROM AFB  CLOUDY    69  47  43 W14       29.78R
HELENA         CLOUDY    71  51  49 NW9       29.86S
CHOTEAU          N/A     77  48  36 N8G16     29.80S
$$

MTZ011-013-016-021-045-047-050-051-271900-
NORTH CENTRAL MONTANA

CITY           SKY/WX    TMP DP  RH WIND       PRES   REMARKS
HAVRE          CLOUDY    74  54  49 NW21G29   29.70R
LEWISTOWN      PTSUNNY   73  46  38 NW8G20    29.77S
N BAR RANCH      N/A     75  45  33 W17G30    29.80S
CHINOOK          N/A     75  54  46 W18G26    29.66R
FORT BENTON      N/A    N/A N/A N/A MISG      29.76R
$$

MTZ017>020-022>027-061-062-271900-
NORTHEAST MONTANA

CITY           SKY/WX    TMP DP  RH WIND       PRES   REMARKS
GLASGOW        CLOUDY    77  50  38 NW14      29.61R
JORDAN           N/A     84  48  28 NW24      29.65S
SIDNEY         SUNNY     89  47  23 W9        29.54F
WOLF POINT     CLOUDY    88  45  22 W12G23    29.57F
MALTA          MOSUNNY   72  57  60 W9        29.63S
PLENTYWOOD       N/A     82  46  28 W17       29.56S
POPLAR           N/A     82  45  26 W14       29.56F
$$

MTZ028>42-056>058-271900-
SOUTHCENTRAL AND SOUTHEAST MONTANA

CITY           SKY/WX    TMP DP  RH WIND       PRES   REMARKS
BAKER          SUNNY     88  45  22 MISG      29.63S
BILLINGS       LGT RAIN  74  44  34 W23G43    29.76F
LIVINGSTON     MOSUNNY   74  45  35 W18G29    29.85F
MILES CITY     CLOUDY    87  43  21 N14G22    29.64R
BIG TIMBER     SUNNY     70  46  43 W15G23    29.87S
ROUNDUP          N/A     81  44  26 SW23      29.69R
$$

REGIONAL REPORTS...DAKOTAS

CITY           SKY/WX    TMP DP  RH WIND       PRES   REMARKS
WILLISTON      SUNNY     85  48  27 SW8       29.55F
MINOT          SUNNY     79  51  37 S13G23    29.58F
DICKINSON      MOSUNNY   82  49  31 S16       29.59F
BEACH            N/A     86  45  23 S5        29.63F
CROSBY           N/A     77  50  38 S8        29.56S
TIOGA            N/A     75  50  41 S16       29.59S
WATFORD CITY     N/A     79  52  38 SE9       29.55F
BISMARCK       MOSUNNY   82  55  39 S23G31    29.65F
GRAND FORKS    MOSUNNY   77  48  35 S20G31    29.75F
FARGO          CLOUDY    74  43  32 S22G31    29.81F
BUFFALO SD       N/A     92  51  24 W18       29.58S
RAPID CITY     SUNNY     81  57  43 S14       29.66S
$$

REGIONAL REPORTS...WYOMING/IDAHO/WASHINGTON

CITY           SKY/WX    TMP DP  RH WIND       PRES   REMARKS
GILLETTE       MOSUNNY   81  44  27 NW18      29.78S
SHERIDAN       CLOUDY    74  51  44 NW8       29.80R
BUFFALO WY     CLOUDY    76  37  24 W12G31    29.82F
CODY           CLOUDY    77  43  29 W10G22    29.86R
YELLOWSTONE LA   N/A     47  43  86 VRB3      30.14R
IDAHO FALLS    CLOUDY    71  51  49 CALM      29.98R
SALMON         MOSUNNY   70  52  52 N5        29.91F
BOISE          SUNNY     79  48  33 NW10G18   29.93F
SPOKANE        MOSUNNY   70  50  49 S3        29.90R
$$

REGIONAL REPORTS...ALBERTA

CITY           SKY/WX    TMP DP  RH WIND       PRES   REMARKS
EDMONTON       LGT RAIN  54  46  76 W18G24    29.70F
CALGARY        MOSUNNY   63  41  45 CALM      29.77F
LETHBRIDGE     PTSUNNY   66  46  48 N9        29.78S
MEDICINE HAT   PTSUNNY   72  48  43 NW12      29.70R
WATERTON GATE    N/A     66  50  55 NE6         N/A
$$

REGIONAL REPORTS...SASKATCHEWAN

CITY           SKY/WX    TMP DP  RH WIND       PRES   REMARKS
SWIFT CURRENT  CLOUDY    61  55  82 NW20G25   29.61R
REGINA         PTSUNNY   81  52  36 S8        29.49S
SASKATOON      PTSUNNY   73  55  53 W17G24    29.46R
CYPRESS HILLS    N/A     57  50  77 NW12G28     N/A
VAL MARIE        N/A     68  57  68 NW6         N/A
ROCKGLEN         N/A     75  50  41 W15G24      N/A
$$




USA.gov is the U.S. government's official web portal to all federal, state and local government web resources and services.